Regional Weather Roundup
Issued by NWS

Home | Current Version | Previous Version | Text Only | Print | Product List | Glossary Off
Versions: 1 2 3 4 5 6 7 8 9 10 11 12 13 14 15 16 17 18 19 20 21 22 23 24 25 26 27 28 29 30 31 32 33 34 35 36 37 38 39 40 41 42 43 44 45 46 47 48 49 50

000
ASUS45 KTFX 280404
RWRMT
MONTANA HOURLY WEATHER ROUNDUP
NATIONAL WEATHER SERVICE GREAT FALLS MT
904 PM MST TUE JAN 27 2015

NOTE: "FAIR" INDICATES FEW OR NO CLOUDS BELOW 12000 FEET WITH NO
SIGNIFICANT WEATHER AND/OR OBSTRUCTIONS TO VISIBILITY.

* THESE STATIONS ARE NOT UNDER NWS QUALITY CONTROL. THEY DO NOT
   REPORT WEATHER SUCH AS PRECIPITATION OR FOG.

MTZ001>007-043-280500-
WEST OF THE DIVIDE
CITY           SKY/WX    TMP DP  RH WIND       PRES   REMARKS
KALISPELL      FOG       21  21 100 N3        29.97S
MISSOULA       CLOUDY    32  28  85 CALM      30.04R
BUTTE          CLOUDY    30  27  89 CALM      30.00S
MULLAN PASS    MOCLDY    36  25  64 SW10      30.02R WCI  29
* ANACONDA     MOCLDY    37  30  76 S8         N/A   WCI  31
* ESSEX        N/A       29  26  89 E1         N/A
* LINCOLN      N/A       33  28  82 NE1        N/A
* LOOKOUT PASS N/A       38  28  67 NE1        N/A
* POLSON       N/A       39  29  67 SE1        N/A
* RONAN APT    CLOUDY    34  34 100 N/A        N/A
* SEELEY LAKE  N/A       30  26  85 NE1        N/A
* THOMP F APT  MOCLDY    33  32  96 NE3        N/A
$$

MTZ008-052>055-280500-
SOUTHWEST MONTANA
CITY           SKY/WX    TMP DP  RH WIND       PRES   REMARKS
BOZEMAN        CLOUDY    36  30  79 CALM      29.97S
DILLON         CLOUDY    43  30  60 S8        30.00S
* W YELLOWSTON CLOUDY    34  32  92 SW3G10     N/A
* THREE FORKS  CLOUDY    52  41  66 S14G25     N/A
* BOULDER HILL N/A       42  23  47 SW6        N/A
* MONIDA PASS  N/A       32  32 100 SE11       N/A   WCI  23
* RAYNOLDS PAS N/A       34  19  54 S14        N/A   WCI  24
* WHITEHALL    N/A       41  25  53 NW6G13     N/A
* WISE RIVER   N/A       32  25  75 W6         N/A   WCI  26
$$

MTZ009>010-012-014-046-048-049-054-280500-
EAST SLOPES AND CENTRAL MONTANA
CITY           SKY/WX    TMP DP  RH WIND       PRES   REMARKS
CUT BANK       CLOUDY    46  25  44 W26       29.83F
GREAT FALLS    CLOUDY    46  28  50 SW10      29.87R
HELENA         CLOUDY    36  30  79 VRB3      29.96R
MALMSTROM AFB  CLOUDY    48  27  44 SW5       29.88R
* DEARBORN     N/A       54  26  34 S6         N/A
* EAST GLACIER N/A       40  20  45 NW7        N/A   WCI  35
* MONARCH      N/A       43  18  37 SW6        N/A
* PENDROY      N/A       49  23  36 NW9        N/A
* ROGERS PASS  N/A       45  24  44 E6G13      N/A
* SWEET GRASS  N/A       46  23  40 W22G28     N/A
$$

MTZ011-013-016-021-035-040-045-047-050-051-280500-
NORTH CENTRAL MONTANA
CITY           SKY/WX    TMP DP  RH WIND       PRES   REMARKS
HAVRE          CLOUDY    45  34  65 SW15      29.80R
LEWISTOWN      MOCLDY    43  28  56 VRB5      29.86S
* N BAR RANCH  CLEAR     43  25  49 W5        29.86F
* CHESTER      N/A       44  29  56 NW4G10     N/A
* DENTON       N/A       45  25  45 SW9        N/A
* GEYSER       N/A       53  19  26 SW19G26    N/A
* JUDITH GAP   N/A       45  24  44 SW8        N/A
* LOMA         N/A       49  32  52 W11        N/A
$$

MTZ017>020-022>027-061-062-280500-
NORTHEAST MONTANA
CITY           SKY/WX    TMP DP  RH WIND       PRES   REMARKS
GLASGOW        CLOUDY    36  30  79 CALM      29.76F
GLENDIVE       MOCLDY    37  30  76 W5        29.79F WCI  33
JORDAN         MOCLDY    30  28  92 SW3       29.79S
SIDNEY         MOCLDY    34  30  85 CALM      29.80S
WOLF POINT     MOCLDY    32  30  92 CALM      29.78S
* BEAVER HILL  N/A       47  32  56 S1         N/A
* CIRCLE       N/A       37  31  79 N/A        N/A
* LINDSAY DVD  N/A       45  29  54 W4         N/A
* NAVAJO       N/A       41  31  68 W5         N/A
* SACO         N/A       32  28  85 N/A        N/A
$$

MTZ028>042-056>058-280500-
SOUTHCENTRAL AND SOUTHEAST MONTANA
CITY           SKY/WX    TMP DP  RH WIND       PRES   REMARKS
BAKER          PTCLDY    37  30  76 CALM      29.80F
BILLINGS       CLOUDY    48  28  46 W14       29.86F
LIVINGSTON     CLOUDY    52  28  40 SW22G36   29.93S
MILES CITY     CLEAR     39  32  76 NW6       29.79F WCI  35
* LAUREL APT   CLOUDY    45  23  42 N/A        N/A
* ROUNDUP APT  CLOUDY    48  28  46 N/A        N/A
* ALZADA       N/A       43  29  58 N/A        N/A
* HYSHAM       N/A       51  26  38 NW6        N/A
* REED POINT   N/A       51  29  43 W6         N/A
* ROSCOE HILL  N/A       52  17  25 SW14G27    N/A
$$

REGIONAL REPORTS...DAKOTAS
CITY           SKY/WX    TMP DP  RH WIND       PRES   REMARKS
WILLISTON      CLOUDY    32  30  92 SW3       29.77S
DICKINSON      CLOUDY    37  30  76 S6        29.77S WCI  32
CROSBY         CLEAR     30  30 100 SW5       29.77S WCI  25
WATFORD CITY   CLEAR     34  32  92 SW3       29.76S
BISMARCK       MOCLDY    34  30  85 E5        29.79F WCI  29
GRAND FORKS    CLOUDY    32  30  92 S15G26    29.91F WCI  22
FARGO          CLOUDY    34  30  85 SE17G26   29.93F WCI  23
BUFFALO SD     CLOUDY    48  30  50 W6        29.75F
RAPID CITY     MOCLDY    50  27  41 SW6       29.82F
$$

REGIONAL REPORTS...WYOMING/IDAHO/WASHINGTON
CITY           SKY/WX    TMP DP  RH WIND       PRES   REMARKS
GILLETTE       CLEAR     46  30  54 SW17      29.86S
SHERIDAN       PTCLDY    36  28  73 S7        29.87S WCI  30
CODY           CLOUDY    54  27  35 W15G26    29.94F
YELLOWSTONE LA CLOUDY    34  28  79 CALM      30.14S
SALMON         CLOUDY   N/A N/A N/A CALM      30.11R
MULLAN PASS    MOCLDY    36  25  64 SW10      30.02S WCI  29
SAND POINT     FOG      N/A N/A N/A CALM      30.04S VSB M1/4
SPOKANE        FOG       36  34  92 SW10      30.07R VSB M1/4 WCI  29
$$

REGIONAL REPORTS...ALBERTA
CITY           SKY/WX    TMP DP  RH WIND       PRES   REMARKS
EDMONTON       LGT RAIN  32  32 100 W5        29.86R VSB 2 1/2 WCI  27

$$




USA.gov is the U.S. government's official web portal to all federal, state and local government web resources and services.